Regional Weather Roundup
Issued by NWS

Home | Current Version | Previous Version | Text Only | Print | Product List | Glossary Off
Versions: 1 2 3 4 5 6 7 8 9 10 11 12 13 14 15 16 17 18 19 20 21 22 23 24 25 26 27 28 29 30 31 32 33 34 35 36 37 38 39 40 41 42 43 44 45 46 47 48 49 50

000
ASUS43 KFSD 040710
RWRSD

WEATHER ROUNDUP FOR SOUTH DAKOTA
NATIONAL WEATHER SERVICE SIOUX FALLS SD
200 AM CDT SAT JUL 04 2015

NOTE: "FAIR" INDICATES FEW OR NO CLOUDS BELOW 12,000 FEET WITH NO
SIGNIFICANT WEATHER AND/OR OBSTRUCTIONS TO VISIBILITY.


SDZ001>005-009-010-012>017-040800-
NORTHWEST AND NORTH CENTRAL SOUTH DAKOTA

CITY           SKY/WX    TMP DP  RH WIND       PRES   REMARKS
BUFFALO          N/A     65  59  81 SE12      29.85F
FAITH            N/A     65  60  84 SE10      29.92F
MOBRIDGE       CLEAR     70  68  93 S8        29.89S FOG
$$

SDZ012>016-024>037-041>051-057-063-072>074-040800-
SOUTHWEST AND SOUTH CENTRAL SOUTH DAKOTA

CITY           SKY/WX    TMP DP  RH WIND       PRES   REMARKS
RAPID CTY ARPT PTCLDY    63  59  87 S5        29.94F
PIERRE         CLEAR     67  63  87 S8        29.91F
CUSTER         MOCLDY    57  52  83 W3        30.09F
ELLSWORTH AFB  PTCLDY    68  60  74 S5        29.93F
PHILIP         CLEAR     64  61  90 E8        29.91F FOG
PINE RIDGE     MOCLDY    71  55  56 S16G24    29.96F
SPEARFISH      FAIR      68  54  60 S7        29.95F
WINNER         FAIR      70  61  73 S13       29.94F
$$

SDZ004>011-016>023-039-040-040800-
NORTHEAST SOUTH DAKOTA

CITY           SKY/WX    TMP DP  RH WIND       PRES   REMARKS
ABERDEEN       CLOUDY    66  62  87 S7        29.92S FOG
WATERTOWN      PTCLDY    64  63  96 S3        29.95S FOG
BROOKINGS      CLEAR     64  61  88 S3        29.99R
SISSETON         N/A     64  61  90 CALM      29.91F
$$

SDZ017-020-022-023-036>040-048>070-040800-
SOUTHEAST SOUTH DAKOTA

CITY           SKY/WX    TMP DP  RH WIND       PRES   REMARKS
SIOUX FALLS    CLEAR     68  61  78 SW5       29.97S
HURON          CLEAR     68  64  87 S7        29.93S
CHAMBERLAIN    CLEAR     64  63  95 SE5       29.95F
MITCHELL       CLEAR     69  64  84 S7        29.95F
YANKTON        CLEAR     64  61  88 W3        29.96S
$$

ABBREVIATIONS USED IN REMARKS
   TC - TEMPERATURE IN CELSIUS
  WCI - WIND CHILL INDEX
   HX - HEAT INDEX
  VSB - VISIBILITY



USA.gov is the U.S. government's official web portal to all federal, state and local government web resources and services.